www.pogodaiklimat.ru

Погода и климат >> Архив погоды >> Бельгия >> Спа


ПОГОДА в Спа

  • Прогноз погоды в Спа
  • Монитор погоды в Спа

АРХИВ ПОГОДЫ в Спа

Время (UTC), дата Ветер
(напр.,м/с)
 
Видим.   Явления Облачность Т
(С)
Тd
(С)
f
(%)
Тe
(С)
Тes
(С)
Комфортность P
(гПа)
Po
(гПа)
Тmin
(С)
Tmax
(С)
R
(мм)
R24
(мм)
S
(см)
10 12.01 ЮЗ 4
{7}
н/о 10/10 300 м
[]
+2.4 +0.8 89 -3 -3 1023.0 964.7
11 12.01 З 6
{10}
н/о 10/10 210 м
[]
+2.8 +1.2 89 -3 -3 1021.7 963.6
12 12.01 З 5
{13}
4500 м слаб. морось {дымка} 10/10 150 м
[]
+3.0 +1.6 91 -2 -2 1021.5 963.4
13 12.01 З 6
{10}
5000 м слаб. дождь {морось} 10/10 90 м
[]
+3.4 +2.5 94 -2 -2 1019.8 961.9
14 12.01 З 7
{13}
1900 м слаб. дождь 10/10 90 м
[]
+3.6 +2.8 94 -3 -3 1018.5 960.7
15 12.01 З 5
{13}
4500 м дождь {снег, морось} 10/10 60 м
[]
+3.8 +3.3 97 -2 -2 1017.9 960.2
16 12.01 З 5
{11}
1000 м слаб. морось {дождь} ?/? +4.0 +3.4 96 -1 -1 1017.4 959.8
17 12.01 СЗ 5
{11}
2400 м слаб. дождь {морось} 10/10 30 м
[]
+4.4 +3.6 95 -1 -1 1017.0 959.5
18 12.01 З 6
{13}
7000 м слаб. дождь {морось} 10/10 90 м
[]
+4.6 +3.9 95 -1 -1 1016.8 959.3 +4.7
19 12.01 З 6
{12}
н/о 10/10 90 м
[]
+4.4 +3.6 95 -1 -1 1016.5 959.0
20 12.01 СЗ 6
{11}
5000 м дымка 10/10 90 м
[]
+4.5 +3.7 95 -1 -1 1016.4 958.9
21 12.01 СЗ 4
{12}
3900 м слаб. дождь {морось} 10/10 60 м
[]
+4.4 +3.5 94 -0 -0 1016.3 958.8
22 12.01 З 5
{11}
2900 м дымка 10/10 60 м
[]
+4.5 +3.8 95 -1 -1 1015.8 958.3
23 12.01 СЗ 5
{10}
2600 м дымка 10/10 60 м
[]
+4.4 +3.6 95 -1 -1 1015.8 958.3
00 13.01 З 4
{12}
1400 м слаб. дождь {морось} 10/10 30 м
[]
+4.3 +3.9 97 -0 -0 1015.3 957.9 0.6
01 13.01 З 5
{9}
200 м морось {дождь} ?/? +4.4 +4.2 99 -1 -1 1015.2 957.8
02 13.01 З 4
{9}
200 м слаб. дождь {морось} ?/? +4.4 +3.9 97 -0 -0 1014.6 957.2
03 13.01 З 5
{9}
1000 м слаб. дождь {морось} 10/10 30 м
[]
+4.4 +4.0 97 -1 -1 1014.1 956.7
04 13.01 З 4
{9}
200 м слаб. дождь ?/? +4.6 +4.4 99 0 0 1013.9 956.6
05 13.01 З 4
{9}
300 м слаб. дождь {морось} ?/? +4.9 +4.2 95 +1 +1 1012.7 955.5
06 13.01 З 5
{9}
400 м морось {дождь} ?/? +5.2 +4.9 98 0 0 1011.8 954.7 +4.3
07 13.01 З 5
{10}
300 м дождь {морось} ?/? +5.5 +5.2 98 +1 +1 1011.4 954.4
08 13.01 З 5
{9}
1900 м слаб. дождь 10/10 30 м
[]
+5.7 +5.3 97 +1 +1 1011.5 954.6
09 13.01 З 5
{11}
1300 м слаб. дождь {морось} 10/10 30 м
[]
+5.8 +5.2 96 +1 +1 1011.4 954.5
10 13.01 З 7
{12}
200 м слаб. морось {дождь} ?/? +5.8 +5.5 98 0 0 1011.0 954.1
11 13.01 З 6
{12}
300 м туман {дождь} ?/? +5.8 +5.2 96 +1 +1 1010.1 953.2
12 13.01 З 6
{12}
1200 м слаб. дождь {морось, туман} 10/10 30 м
[]
+6.0 +5.4 96 +1 +1 1008.6 951.9 3
13 13.01 З 6
{12}
2200 м дождь 10/10 30 м
[]
+6.2 +5.7 97 +1 +1 1007.9 951.3
14 13.01 З 5
{11}
3800 м слаб. дождь 10/10 30 м
[]
+6.3 +5.8 97 +2 +2 1007.1 950.5
15 13.01 З 6
{12}
3400 м слаб. дождь 10/10 30 м
[]
+6.5 +6.0 97 +2 +2 1006.7 950.2
16 13.01 СЗ 7
{13}
1900 м слаб. дождь 10/10 30 м
[]
+6.4 +6.0 97 +1 +1 1006.5 950.0
17 13.01 СЗ 6
{15}
3800 м сильн. морось {дождь} 10/10 30 м
[]
+6.2 +5.8 97 +1 +1 1006.6 950.1
18 13.01 СЗ 7
{15}
н/о 10/10 90 м
[]
+6.2 +5.4 95 +1 +1 1006.1 949.5 +6.5
19 13.01 З 7
{16}
9000 м морось 10/10 120 м
[]
+6.1 +5.5 96 +1 +1 1005.7 949.1
20 13.01 СЗ 6
{14}
21 км {дождь, морось} 10/10 150 м
[]
+5.8 +5.0 95 +1 +1 1005.5 948.9
21 13.01 СЗ 5
{16}
25 км {дождь, морось} 10/10 120 м
[]
+4.9 +3.9 93 0 0 1006.2 949.4
22 13.01 СЗ 6
{14}
23 км {дождь, морось} 10/10 210 м
[]
+4.9 +3.7 92 -0 -0 1006.9 950.0
23 13.01 СЗ 6
{13}
13 км 10/10 150 м
[]
+4.7 +3.6 93 -1 -1 1007.4 950.4
00 14.01 СЗ 5
{16}
14 км {дождь, морось} 10/10 210 м
[]
+4.4 +2.9 90 -1 -1 1008.0 950.9
01 14.01 СЗ 6
{12}
13 км 10/10 210 м
[]
+4.1 +2.6 90 -1 -1 1008.6 951.5
02 14.01 СЗ 6
{12}
11 км 10/10 180 м
[]
+4.0 +2.8 92 -2 -2 1009.4 952.2
03 14.01 СЗ 6
{12}
11 км осадки 10/10 210 м
[]
+3.9 +2.4 90 -2 -2 1010.0 952.8
04 14.01 СЗ 6
{12}
н/о 10/10 90 м
[]
+3.4 +2.8 96 -2 -2 1010.5 953.1
05 14.01 СЗ 6
{11}
н/о 10/10 120 м
[]
+3.4 +2.5 94 -2 -2 1010.7 953.3
06 14.01 СЗ 6
{12}
н/о 10/10 120 м
[]
+3.4 +2.5 94 -2 -2 1011.5 954.0 +3.0
07 14.01 СЗ 6
{12}
9000 м 10/10 120 м
[]
+3.4 +2.4 93 -2 -2 1012.2 954.7
08 14.01 СЗ 5
{10}
9000 м осадки 10/10 120 м
[]
+3.1 +2.2 94 -2 -2 1013.1 955.5
09 14.01 СЗ 6
{12}
11 км {дождь, дымка} 10/10 90 м
[]
+2.9 +2.2 95 -3 -3 1014.0 956.3
10 14.01 СЗ 5
{13}
16 км слаб. морось 10/10 90 м
[]
+2.8 +2.1 95 -3 -3 1014.8 957.1
11 14.01 СЗ 5
{10}
14 км 10/10 120 м
[]
+3.0 +2.0 93 -2 -2 1015.3 957.6
12 14.01 СЗ 5
{13}
27 км {морось, дымка} 9/9 240 м
[]
+3.4 +1.4 87 -2 -2 1015.7 958.0
13 14.01 С 3
{12}
23 км {снег, дождь} 10/10 800 м
[]
+1.2 -0.5 88 -3 -3 1017.1 958.9
14 14.01 СЗ 3
{9}
13 км {снег, дождь} 10/10 90 м
[]
+1.5 +0.5 93 -3 -3 1017.4 959.2
15 14.01 СЗ 3
{12}
23 км {снег, дождь} 5/5 120 м
[]
+1.1 -0.2 91 -3 -3 1018.6 960.2
16 14.01 СЗ 6
{10}
9000 м слаб. дождь 9/9 120 м
[]
+0.6 -0.5 92 -6 -6 1019.8 961.3
17 14.01 СЗ 4
{10}
26 км ясно +0.3 -1.3 89 -5 -5 1020.4 961.7
18 14.01 СЗ 2
{12}
16 км {снег, дождь} 10/10 1170 м
[]
+0.1 -1.8 87 -4 -4 1020.9 962.2 +3.8
19 14.01 СЗ 3
{5}
18 км 10/10 420 м
[]
+0.5 -1.2 88 -4 -4 1021.3 962.7
20 14.01 СЗ 3
{5}
13 км 10/10 270 м
[]
+0.6 -1.0 89 -4 -4 1021.9 963.2
21 14.01 СЗ 3
{5}
13 км 10/10 360 м
[]
+0.6 -1.1 88 -4 -4 1021.9 963.3
22 14.01 СЗ 4
{6}
8000 м {снег, дождь} 10/10 120 м
[]
+0.7 -0.4 92 -5 -5 1022.1 963.5
23 14.01 З 2
{6}
4000 м дымка {осадки} 10/10 60 м
[]
+0.7 -1.6 85 -3 -3 1022.5 963.9
00 15.01 З 2
{6}
3500 м дымка {дождь, осадки} 10/10 60 м
[]
+0.7 -1.0 88 -3 -3 1022.5 963.8
01 15.01 З 2
{6}
1600 м слаб. дождь ?/? +0.7 +0.4 98 -3 -3 1022.7 964.0
02 15.01 З 3
{6}
2700 м в посл. час туман 10/10 60 м
[]
+0.8 -0.1 94 -4 -4 1023.0 964.3
03 15.01 З 3
{6}
2800 м слаб. дождь {туман} 10/10 60 м
[]
+0.7 -0.1 94 -4 -4 1022.9 964.3
04 15.01 З 3
{6}
4300 м дымка {дождь} 10/10 60 м
[]
+1.0 0.0 93 -4 -4 1022.7 964.1
05 15.01 З 2
{6}
н/о 10/10 700 м
[]
+1.1 -0.3 90 -2 -2 1022.3 963.7
06 15.01 З 4
{7}
н/о 10/10 90 м
[]
+1.5 +0.1 90 -4 -4 1021.8 963.4 0.0
07 15.01 З 4
{7}
н/о 10/10 90 м
[]
+1.9 +0.8 92 -3 -3 1021.6 963.3
08 15.01 З 4
{8}
4500 м дымка 10/10 90 м
[]
+2.1 +1.3 94 -3 -3 1021.6 963.4
09 15.01 З 4
{8}
5000 м дымка 10/10 90 м
[]
+2.3 +1.3 93 -3 -3 1021.8 963.5
10 15.01 З 4
{8}
н/о 10/10 150 м
[]
+2.6 +1.3 91 -2 -2 1021.9 963.7
11 15.01 З 5
{8}
15 км 10/10 330 м
[]
+3.1 +1.2 87 -2 -2 1021.5 963.4
12 15.01 З 5
{9}
16 км {морось, дымка} 10/10 240 м
[]
+3.2 +1.2 87 -2 -2 1020.9 962.9
13 15.01 З 4
{9}
16 км 10/10 240 м
[]
+3.4 +1.2 85 -1 -1 1020.5 962.6
14 15.01 З 3
{10}
21 км 10/10 540 м
[]
+3.4 +0.7 82 -0 -0 1020.3 962.3
15 15.01 З 4
{10}
9000 м 10/10 180 м
[]
+3.4 +1.6 88 -1 -1 1019.9 962.0
16 15.01 З 5
{8}
8000 м осадки {морось, дымка} 10/10 120 м
[]
+3.0 +1.9 92 -2 -2 1020.0 962.0
17 15.01 З 5
{8}
н/о 10/10 150 м
[]
+3.0 +1.8 92 -2 -2 1019.9 961.9
18 15.01 З 5
{11}
16 км {осадки, дымка} 10/10 150 м
[]
+3.0 +1.8 92 -2 -2 1019.9 961.9 +3.4
19 15.01 З 4
{9}
25 км 10/10 210 м
[]
+3.1 +1.8 91 -2 -2 1019.7 961.7
20 15.01 З 4
{9}
н/о 10/10 90 м
[]
+3.1 +2.1 93 -2 -2 1019.3 961.3
21 15.01 З 5
{9}
н/о 10/10 90 м
[]
+3.1 +2.2 94 -2 -2 1019.1 961.2
22 15.01 ЮЗ 5
{9}
н/о 10/10 90 м
[]
+3.1 +2.1 93 -2 -2 1018.9 961.0
23 15.01 З 5
{8}
11 км {осадки, дымка} 10/10 150 м
[]
+3.0 +1.6 91 -2 -2 1018.4 960.4
00 16.01 ЮЗ 5
{9}
н/о 10/10 150 м
[]
+3.2 +1.8 91 -2 -2 1017.8 960.0
01 16.01 ЮЗ 5
{8}
3500 м слаб. дождь 10/10 150 м
[]
+2.8 +1.5 91 -3 -3 1017.5 959.6
02 16.01 ЮЗ 5
{9}
н/о 10/10 180 м
[]
+2.7 +1.4 91 -3 -3 1017.4 959.4
03 16.01 ЮЗ 5
{9}
25 км {дождь, дымка} 10/10 480 м
[]
+2.7 +1.2 90 -3 -3 1016.7 958.9
04 16.01 ЮЗ 4
{9}
26 км 10/10 400 м
[]
+2.5 -0.1 83 -2 -2 1016.0 958.1
05 16.01 ЮЗ 4
{7}
27 км 10/10 270 м
[]
+2.3 +0.6 89 -3 -3 1015.4 957.5
06 16.01 ЮЗ 4
{9}
22 км {дождь, дымка} 10/10 270 м
[]
+2.1 +0.5 89 -3 -3 1015.0 957.1 +2.1
07 16.01 ЮЗ 4
{9}
18 км 10/10 270 м
[]
+1.8 -0.6 84 -3 -3 1014.6 956.6
08 16.01 ЮЗ 4
{9}
18 км 10/10 240 м
[]
+1.5 -0.8 85 -4 -4 1014.1 956.1
09 16.01 ЮЗ 4
{9}
16 км 10/10 240 м
[]
+1.6 -0.8 84 -3 -3 1014.2 956.2
10 16.01 ЮЗ 3
{7}
18 км 10/10 270 м
[]
+1.7 -0.8 83 -3 -3 1013.6 955.7
11 16.01 ЮЗ 4
{7}
19 км 10/10 300 м
[]
+2.0 -0.7 82 -3 -3 1012.5 954.7
12 16.01 ЮЗ 4
{10}
21 км 10/10 300 м
[]
+2.4 -0.4 82 -2 -2 1011.2 953.6
13 16.01 ЮЗ 4
{9}
29 км 10/10 300 м
[]
+2.8 -0.3 80 -2 -2 1010.0 952.5
14 16.01 Ю 5
{8}
28 км ясно +2.9 -0.3 79 -2 -2 1008.6 951.2
15 16.01 Ю 5
{10}
30 км ясно +2.9 0.0 81 -2 -2 1007.8 950.4
16 16.01 Ю 6
{11}
30 км ясно +2.5 -0.4 81 -3 -3 1007.2 949.8
17 16.01 Ю 5
{10}
27 км ясно +2.0 -0.8 82 -4 -4 1007.0 949.5
18 16.01 Ю 6
{11}
26 км ясно +1.5 -1.1 83 -5 -5 1006.8 949.2 +3.2
19 16.01 ЮЗ 5
{9}
23 км 10/10 300 м
[]
+1.8 -0.9 82 -4 -4 1007.0 949.5
20 16.01 ЮЗ 6
{12}
14 км 10/10 330 м
[]
+2.0 -0.9 81 -4 -4 1006.2 948.8
21 16.01 Ю 6
{12}
17 км 10/10 660 м
[]
+2.1 -0.6 82 -4 -4 1005.8 948.4
22 16.01 Ю 6
{11}
16 км 10/10 270 м
[]
+2.3 -0.2 84 -4 -4 1005.4 948.1
23 16.01 ЮЗ 6
{12}
5000 м дымка 10/10 150 м
[]
+2.2 +0.9 91 -4 -4 1005.1 947.8
00 17.01 ЮЗ 7
{14}
2200 м морось {дождь, дымка} 10/10 120 м
[]
+2.4 +1.3 92 -4 -4 1004.7 947.4
01 17.01 ЮЗ 6
{13}
3300 м слаб. дождь {морось} 10/10 150 м
[]
+2.5 +1.4 92 -4 -4 1004.6 947.4
02 17.01 ЮЗ 6
{12}
7000 м слаб. морось {дождь} 10/10 150 м
[]
+2.4 +1.2 92 -4 -4 1004.8 947.5
03 17.01 ЮЗ 5
{13}
11 км слаб. дождь {морось} 10/10 120 м
[]
+2.3 +1.2 92 -3 -3 1004.8 947.5
04 17.01 ЮЗ 5
{10}
45 км {дождь} 10/10 960 м
[]
+2.4 +1.1 91 -3 -3 1004.3 947.0
05 17.01 ЮЗ 3
{7}
45 км 10/10 840 м
[]
+2.3 +1.0 91 -2 -2 1004.4 947.1
06 17.01 ЮЗ 4
{13}
45 км {дождь, морось} 10/10 240 м
[]
+2.4 +0.8 89 -3 -3 1004.4 947.2 +1.4
07 17.01 ЮЗ 4
{8}
45 км 10/10 270 м
[]
+2.3 +0.7 89 -3 -3 1004.2 946.9
08 17.01 ЮЗ 5
{8}
40 км 9/9 180 м
[]
+2.1 +0.8 91 -4 -4 1003.9 946.7
09 17.01 ЮЗ 6
{10}
30 км слаб. дождь 10/10 180 м
[]
+2.5 +1.0 90 -4 -4 1004.0 946.8
10 17.01 ЮЗ 6
{12}
3900 м дождь {морось} 10/10 150 м
[]
+2.0 +0.7 91 -4 -4 1004.1 946.8
11 17.01 З 6
{12}
5000 м слаб. дождь {морось} 10/10 120 м
[]
+1.9 +0.8 92 -4 -4 1004.2 946.9
12 17.01 З 5
{12}
8000 м слаб. дождь {морось, осадки} 10/10 90 м
[]
+1.7 +0.9 94 -4 -4 1004.4 947.0
13 17.01 З 4
{11}
6000 м осадки 10/10 60 м
[]
+0.5 -0.7 92 -5 -5 1005.7 948.0
14 17.01 СЗ 5
{8}
3500 м дождь со снегом {осадки} 10/10 30 м
[]
+0.6 +0.1 96 -6 -6 1006.1 948.4
15 17.01 СЗ 5
{16}
3300 м слаб. снег {осадки, дымка} 10/10 60 м
[]
-0.3 -1.4 92 -7 -7 1008.0 950.0
16 17.01 СЗ 4
{9}
н/о 10/10 60 м
[]
-0.3 -1.5 92 -6 -6 1009.0 950.9
17 17.01 З 5
{11}
23 км в посл. час туман 10/10 270 м
[]
-0.4 -2.1 88 -7 -7 1009.9 951.7
18 17.01 З 5
{16}
19 км {снег, туман} 10/10 300 м
[]
-0.6 -2.7 86 -7 -7 1010.6 952.4 +2.6
19 17.01 З 5
{11}
1800 м слаб. снег 10/10 90 м
[]
-1.0 -1.8 94 -8 -8 1011.3 952.9
20 17.01 СЗ 5
{14}
18 км 10/10 120 м
[]
-0.7 -2.4 88 -7 -7 1012.8 954.4
21 17.01 З 4
{14}
5000 м дымка 10/10 60 м
[]
-1.0 -2.3 91 -7 -7 1014.0 955.5
22 17.01 З 4
{8}
1700 м слаб. снег {дымка} 10/10 60 м
[]
-1.0 -2.4 90 -7 -7 1014.7 956.2
23 17.01 СЗ 3
{10}
2400 м дымка {снег} 10/10 60 м
[]
-1.0 -2.6 89 -6 -6 1015.4 956.8
00 18.01 СЗ 4
{14}
н/о 10/10 30 м
[]
-0.9 -2.1 92 -7 -7 1015.8 957.2
01 18.01 СЗ 3
{8}
2600 м в посл. час туман 10/10 60 м
[]
-1.0 -2.4 90 -6 -6 1016.5 957.8
02 18.01 З 3
{6}
200 м туман ?/? -0.9 -2.4 90 -6 -6 1017.1 958.4
03 18.01 СЗ 4
{8}
н/о 10/10 30 м
[]
-1.0 -2.2 92 -7 -7 1017.6 958.9
04 18.01 СЗ 3
{8}
2500 м в посл. час туман 10/10 60 м
[]
-1.0 -2.8 88 -6 -6 1018.4 959.6
05 18.01 З 2
{5}
900 м туман {дымка} ?/? -1.1 -2.6 90 -5 -5 1018.9 960.0
06 18.01 СЗ 2
{8}
2600 м в посл. час туман {дымка} 10/10 30 м
[]
-1.2 -3.0 88 -5 -5 1019.3 960.5 -1.3
07 18.01 С 1
{4}
3600 м дымка {туман} 10/10 90 м
[]
-1.3 -3.2 87 -3 -3 1019.5 960.6
08 18.01 З 1
{3}
н/о 9/9 240 м
[]
-1.5 -3.7 85 -4 -4 1020.5 961.5
09 18.01 СЗ 1
{4}
н/о 9/9 90 м
[]
-1.3 -3.2 87 -3 -3 1021.0 962.0
10 18.01 1
{2}
15 км 4/4 240 м
[]
-0.8 -3.3 83 -3 -2 1021.3 962.4
11 18.01 штиль 0
{2}
22 км ясно 0.0 -2.1 86 -1 +2 1021.0 962.3
12 18.01 Ю 1
{4}
30 км {туман, дымка} 8/8 420 м
[]
-0.1 -3.2 80 -2 -1 1021.2 962.4
13 18.01 ЮЗ 1
{2}
35 км 1/1 600 м
[]
+0.3 -3.8 74 -1 +1 1020.8 962.1
14 18.01 1
{2}
35 км 9/9 600 м
[]
+0.8 -3.0 76 -1 -1 1020.3 961.8
15 18.01 Ю 2
{3}
35 км ясно +0.2 -4.5 71 -3 -3 1020.2 961.6
16 18.01 Ю 1
{3}
30 км ясно -0.7 -5.5 70 -2 -2 1020.3 961.4
17 18.01 В 1
{3}
27 км ясно -2.4 -7.4 68 -4 -4 1020.5 961.3
18 18.01 1
{3}
21 км ясно -2.5 -6.3 75 -5 -5 1020.5 961.2 +1.8
19 18.01 Ю 5
{6}
21 км ясно -2.5 -5.7 79 -9 -9 1020.3 961.1
20 18.01 Ю 3
{6}
19 км ясно -3.0 -6.2 79 -8 -8 1020.3 961.0
21 18.01 ЮВ 5
{7}
29 км ясно -2.5 -6.1 76 -9 -9 1019.9 960.7
22 18.01 ЮВ 4
{7}
27 км ясно -2.9 -6.2 78 -9 -9 1019.9 960.6
23 18.01 ЮВ 4
{7}
29 км ясно -3.2 -6.3 79 -9 -9 1019.8 960.5
00 19.01 Ю 6
{8}
27 км ясно -3.4 -6.3 80 -11 -11 1019.5 960.1
01 19.01 Ю 5
{8}
24 км ясно -3.6 -6.5 80 -10 -10 1019.2 959.8
02 19.01 Ю 5
{8}
27 км ясно -3.5 -6.5 80 -10 -10 1018.9 959.5
03 19.01 Ю 4
{8}
22 км ясно -3.4 -6.4 80 -9 -9 1018.4 959.1
04 19.01 Ю 5
{7}
21 км ясно -3.3 -6.3 80 -10 -10 1018.0 958.7
05 19.01 ЮВ 5
{8}
20 км ясно -3.2 -6.2 80 -10 -10 1017.4 958.2
06 19.01 ЮВ 5
{8}
19 км ясно -3.4 -6.2 81 -10 -10 1017.1 957.9 -3.7
07 19.01 ЮВ 5
{8}
25 км ясно -3.5 -6.7 78 -10 -10 1016.8 957.6
08 19.01 ЮВ 6
{9}
27 км ясно -3.6 -6.9 78 -11 -11 1017.0 957.7
09 19.01 ЮВ 5
{10}
25 км ясно -3.3 -6.9 76 -10 -9 1016.8 957.6
10 19.01 ЮВ 5
{9}
30 км ясно -2.3 -6.4 73 -9 -8 1016.5 957.5

 

Местоположение метеостанции Спа (Бельгия): широта 50.48 долгота 5.92 высота над уровнем моря 482 м.

В архиве по умолчанию представлена погода в Спа за последнюю неделю. Архивные данные за месяц целиком и за предыдущие месяцы, начиная с января 2011 года, Вы можете получить, выбрав интересующий диапазон дат из раскрывающегося списка и нажав кнопку "Ввод!".


*Определитесь, кто Вы:
робот инопланетянин человек

Внимание! Время в таблицах - всемирное. Для получения местного времени необходимо прибавить поправку, которая равна 1 ч.

Смотрите также архив погоды в соседних городах и на ближайших метеорологических станциях:

Погода на Монт-Риги (Бельгия) (12 км)
Погода в Элзенборне (Бельгия) (18 км)
Погода в Ахен-Орсбахе (Германия) (34 км)
Погода в Бьерсете (Бельгия) (38 км)
Погода в Маастрихте (Нидерланды) (50 км)
Погода в Гайленкирхене (Германия) (55 км)
Погода в Гумане (Бельгия) (57 км)
Погода в Дипенбеке (Бельгия) (59 км)
Погода в Сент-Губерте (Бельгия) (62 км)
Погода в Нёрфенихе (Германия) (66 км)

Пояснения к столбцам:

Ветер - указаны скорость ветра в м/с - средняя за 10 мин, порывы в срок и между сроками (в фигурных скобках) и направление, откуда дует ветер: С - северный, СВ - северо-восточный, В - восточный, ЮВ - юго-восточный, Ю - южный, ЮЗ - юго-западный, З - западный, СЗ - северо-западный.
Видимость - горизонтальная дальность видимости в метрах или километрах. При видимости от 1 до 10 км при отсутствии осадков обычно наблюдается дымка, при ухудшении видимости до 1 км и менее - туман. В сухую погоду видимость может ухудшаться дымом, пылью или мглою.
Явления - указаны атмосферные явления, наблюдавшиеся в срок или в последний час перед сроком; фигурными скобками обозначены явления, наблюдавшиеся между сроками (за 1-3 часа до срока); квадратными скобками обозначены град или гололедные отложения с указанием их диаметра в мм.
Облачность - указаны через наклонную черту общая и нижняя облачность в баллах и высота нижней границы облаков в метрах; квадратными скобками обозначены формы облаков: Ci - перистые, Cs - перисто-слоистые, Cc - перисто-кучевые, Ac - высококучевые, As - высокослоистые, Sc - слоисто-кучевые, Ns - слоисто-дождевые, Cu - кучевые, Cb - кучево-дождевые. Подробнее классификацию облаков см. в Атласе облаков (PDF).
T - Температура воздуха - температура, измеренная на высоте 2 м над землей.
Td - Температура точки росы - температура, при понижении до которой содержащийся в воздухе водяной пар достигнет насыщения.
f - Относительная влажность воздуха - влажноcть воздуха, измеренная на высоте 2 м над землей.
Te - Эффективная температура - температура, которую ощущает одетый по сезону человек в тени. Характеристика душности погоды. При расчете учитывается влияние влажности воздуха и скорости ветра на теплоощущения человека.
Tes - Эффективная температура на солнце - температура, которую ощущает человек, с поправкой на солнечный нагрев. Характеристика знойности погоды. Зависит от высоты солнца над горизонтом, облачности и скорости ветра. Ночью, в пасмурную погоду, а также при ветре 12 м/с и более поправка равна нулю.
P - Атмосферное давление - приведенное к уровню моря атмосферное давление.
Po - Атмосферное давление - измеренное на уровне метеостанции атмосферное давление.
Tmin - Минимальная температура - минимум температуры воздуха на высоте 2 м над землей.
Tmax - Максимальная температура - максимум температуры воздуха на высоте 2 м над землей.
R - Количество осадков - Количество выпавших осадков за период времени, мм. При наведении курсора мыши на число - период времени, за который выпало указанное количество осадков.
R24 - Количество осадков - Количество выпавших осадков за 24 часа, мм.
S - Снежный покров - Высота снежного покрова, см. При наведении курсора мыши на число - состояние снежного покрова и степень покрытия местности в баллах.